Location: Anywhere
(41.5000°N, 71.4000°W)
Time: 11:55:50
(UTC-04:00)

Envisat - Visible Passes

Search period start: 05 October 2022 00:00
Search period end: 15 October 2022 00:00
Orbit: 764 x 765 km, 98.2° (Epoch: 04 October)

Date Brightness Start Highest point End Pass type
(mag) Time Alt. Az. Time Alt. Az. Time Alt. Az.
05 Oct 5.8 03:49:33 10° ENE 03:52:20 15° E 03:55:07 10° ESE visible
05 Oct 2.9 05:26:44 10° N 05:31:47 65° WNW 05:36:47 10° SSW visible
06 Oct 3.6 04:49:49 10° NNE 04:54:49 57° E 04:59:48 10° S visible
07 Oct 5.0 04:13:29 10° NE 04:17:41 25° E 04:21:50 10° SSE visible
07 Oct 3.5 05:52:05 10° N 05:56:45 38° WNW 06:01:23 10° SW visible
08 Oct 6.0 03:38:55 10° ENE 03:40:19 11° E 03:41:43 10° ESE visible
08 Oct 2.9 05:14:50 10° NNE 05:19:56 83° WNW 05:25:00 10° SSW visible
09 Oct 4.1 04:38:03 10° NNE 04:42:55 44° E 04:47:45 10° S visible
09 Oct 4.1 06:17:43 10° NNW 06:21:38 23° WNW 06:25:32 10° WSW visible
10 Oct 5.4 04:02:00 10° NE 04:05:42 20° E 04:09:23 10° SE visible
10 Oct 3.2 05:40:04 10° N 05:44:57 48° WNW 05:49:48 10° SW visible
11 Oct 3.1 05:02:58 10° NNE 05:08:04 78° ESE 05:13:08 10° S visible
12 Oct 4.5 04:26:22 10° NNE 04:30:59 34° E 04:35:35 10° SSE visible
12 Oct 3.8 06:05:33 10° N 06:09:52 29° WNW 06:14:10 10° SW visible
13 Oct 5.7 03:50:44 10° NE 03:53:42 15° E 03:56:41 10° SE visible
13 Oct 3.0 05:28:06 10° N 05:33:07 62° WNW 05:38:06 10° SSW visible
14 Oct 3.5 04:51:09 10° NNE 04:56:11 60° E 05:01:11 10° S visible
